| time (UTC) | temp C | wind direction | speed KPH | gust KPH | rain 1hr cm | rain 24hr cm | rain mn cm | humidity % | barometer mb |
| 20260507075217 | 12 | 337 | 1.6 | 4.8 | 0.00 | 0.05 | 0.00 | 80 | 1014.9 |
| 20260507074503 | 11 | 329 | 1.6 | 4.8 | 0.00 | 0.05 | 0.00 | 80 | 1015.0 |
| 20260507074217 | 11 | 344 | 1.6 | 4.8 | 0.00 | 0.05 | 0.00 | 80 | 1014.9 |
| 20260507073503 | 11 | 267 | 1.6 | 4.8 | 0.00 | 0.08 | 0.00 | 81 | 1014.9 |
| 20260507073004 | 11 | 298 | 1.6 | 4.8 | 0.00 | 0.08 | 0.00 | 82 | 1014.9 |
| 20260507072504 | 11 | 313 | 1.6 | 4.8 | 0.00 | 0.10 | 0.00 | 82 | 1014.8 |
| 20260507072003 | 11 | 62 | 1.6 | 6.4 | 0.00 | 0.10 | 0.00 | 82 | 1014.7 |
| 20260507071718 | 11 | 74 | 1.6 | 6.4 | 0.00 | 0.10 | 0.00 | 83 | 1014.8 |
| 20260507071003 | 11 | 338 | 1.6 | 4.8 | 0.00 | 0.10 | 0.00 | 84 | 1014.8 |
| 20260507070503 | 11 | 292 | 1.6 | 6.4 | 0.00 | 0.13 | 0.00 | 83 | 1014.9 |
| 20260507070007 | 11 | 290 | 1.6 | 6.4 | 0.00 | 0.13 | 0.00 | 83 | 1014.8 |
| 20260507065503 | 10 | 45 | 1.6 | 4.8 | 0.00 | 0.13 | 0.00 | 84 | 1014.7 |
| 20260507065003 | 10 | 25 | 1.6 | 6.4 | 0.00 | 0.13 | 0.00 | 83 | 1014.7 |
| 20260507064504 | 10 | 33 | 1.6 | 6.4 | 0.00 | 0.15 | 0.00 | 84 | 1014.7 |
| 20260507064004 | 10 | 63 | 1.6 | 6.4 | 0.00 | 0.15 | 0.00 | 84 | 1014.6 |
| 20260507063718 | 10 | 33 | 0.0 | 6.4 | 0.00 | 0.15 | 0.00 | 85 | 1014.6 |
| 20260507063003 | 10 | 305 | 1.6 | 4.8 | 0.00 | 0.18 | 0.00 | 85 | 1014.5 |
| 20260507062717 | 10 | 312 | 1.6 | 4.8 | 0.00 | 0.20 | 0.00 | 85 | 1014.6 |
| 20260507062003 | 10 | 342 | 1.6 | 3.2 | 0.00 | 0.20 | 0.00 | 86 | 1014.5 |
| 20260507061503 | 10 | 19 | 1.6 | 3.2 | 0.00 | 0.23 | 0.00 | 86 | 1014.5 |
| 20260507061003 | 10 | 63 | 1.6 | 3.2 | 0.00 | 0.23 | 0.00 | 86 | 1014.3 |
| 20260507060503 | 9 | 63 | 1.6 | 3.2 | 0.00 | 0.23 | 0.00 | 87 | 1014.3 |
| 20260507060003 | 9 | 63 | 0.0 | 3.2 | 0.00 | 0.23 | 0.00 | 88 | 1014.2 |
| 20260507055504 | 9 | 63 | 0.0 | 3.2 | 0.00 | 0.23 | 0.00 | 88 | 1014.2 |
| 20260507055218 | 9 | 63 | 0.0 | 1.6 | 0.00 | 0.23 | 0.00 | 88 | 1014.2 |
| 20260507054503 | 8 | 63 | 0.0 | 3.2 | 0.00 | 0.23 | 0.00 | 89 | 1014.0 |
| 20260507054003 | 8 | 63 | 0.0 | 3.2 | 0.00 | 0.23 | 0.00 | 89 | 1014.0 |
| 20260507053503 | 8 | 63 | 0.0 | 1.6 | 0.00 | 0.25 | 0.00 | 90 | 1013.9 |
| 20260507053004 | 8 | 63 | 0.0 | 1.6 | 0.00 | 0.25 | 0.00 | 90 | 1014.0 |
| 20260507052503 | 8 | 63 | 0.0 | 1.6 | 0.00 | 0.28 | 0.00 | 91 | 1014.1 |
| 20260507052003 | 8 | 63 | 0.0 | 1.6 | 0.00 | 0.28 | 0.00 | 90 | 1014.0 |
| 20260507051503 | 8 | 0 | 0.0 | 0.0 | 0.00 | 0.28 | 0.00 | 91 | 1013.9 |
| 20260507051003 | 8 | 63 | 0.0 | 1.6 | 0.00 | 0.28 | 0.00 | 91 | 1013.8 |
| 20260507050503 | 8 | 63 | 0.0 | 1.6 | 0.00 | 0.28 | 0.00 | 92 | 1013.8 |
| 20260507050003 | 8 | 63 | 0.0 | 1.6 | 0.00 | 0.28 | 0.00 | 92 | 1013.8 |
| 20260507045717 | 8 | 63 | 0.0 | 1.6 | 0.00 | 0.28 | 0.00 | 92 | 1013.8 |
| 20260507045003 | 8 | 63 | 0.0 | 1.6 | 0.00 | 0.30 | 0.00 | 91 | 1013.7 |
| 20260507044717 | 8 | 63 | 0.0 | 1.6 | 0.00 | 0.30 | 0.00 | 91 | 1013.6 |
| 20260507044003 | 8 | 0 | 0.0 | 0.0 | 0.00 | 0.30 | 0.00 | 91 | 1013.7 |
| 20260507043503 | 8 | 63 | 0.0 | 1.6 | 0.00 | 0.30 | 0.00 | 91 | 1013.6 |
| 20260507043003 | 8 | 63 | 0.0 | 1.6 | 0.00 | 0.33 | 0.00 | 91 | 1013.5 |
| 20260507042504 | 8 | 63 | 0.0 | 1.6 | 0.00 | 0.33 | 0.00 | 92 | 1013.5 |
| 20260507042003 | 8 | 63 | 0.0 | 1.6 | 0.00 | 0.33 | 0.00 | 92 | 1013.4 |
| 20260507041503 | 8 | 0 | 0.0 | 0.0 | 0.00 | 0.33 | 0.00 | 92 | 1013.5 |
| 20260507041004 | 8 | 63 | 0.0 | 1.6 | 0.00 | 0.36 | 0.00 | 93 | 1013.4 |
| 20260507040504 | 8 | 63 | 0.0 | 1.6 | 0.00 | 0.36 | 0.00 | 93 | 1013.4 |
| 20260507040003 | 8 | 63 | 0.0 | 1.6 | 0.00 | 0.38 | 0.00 | 93 | 1013.4 |
| 20260507035503 | 8 | 63 | 0.0 | 1.6 | 0.00 | 0.38 | 0.00 | 92 | 1013.3 |
| 20260507035003 | 8 | 63 | 0.0 | 1.6 | 0.00 | 0.41 | 0.00 | 92 | 1013.2 |
| 20260507034503 | 8 | 0 | 0.0 | 0.0 | 0.00 | 0.41 | 0.00 | 92 | 1013.3 |
| 20260507034217 | 8 | 63 | 0.0 | 1.6 | 0.00 | 0.41 | 0.00 | 92 | 1013.3 |
| 20260507033503 | 8 | 63 | 0.0 | 1.6 | 0.00 | 0.43 | 0.00 | 92 | 1013.2 |
| 20260507033003 | 8 | 0 | 0.0 | 0.0 | 0.00 | 0.43 | 0.00 | 92 | 1013.2 |
| 20260507032504 | 8 | 0 | 0.0 | 0.0 | 0.00 | 0.43 | 0.00 | 92 | 1013.2 |
| 20260507032003 | 8 | 63 | 0.0 | 1.6 | 0.00 | 0.43 | 0.00 | 92 | 1013.3 |
| 20260507031718 | 8 | 63 | 0.0 | 1.6 | 0.00 | 0.43 | 0.00 | 91 | 1013.2 |
| 20260507031003 | 8 | 63 | 0.0 | 1.6 | 0.00 | 0.43 | 0.00 | 91 | 1013.1 |
| 20260507030718 | 8 | 63 | 0.0 | 1.6 | 0.00 | 0.43 | 0.00 | 92 | 1013.1 |
| 20260507030003 | 8 | 63 | 0.0 | 1.6 | 0.00 | 0.46 | 0.00 | 92 | 1013.0 |
| 20260507025503 | 8 | 63 | 0.0 | 3.2 | 0.00 | 0.46 | 0.00 | 92 | 1013.1 |
| 20260507025003 | 8 | 63 | 0.0 | 3.2 | 0.00 | 0.46 | 0.00 | 92 | 1013.1 |
| 20260507024503 | 8 | 63 | 0.0 | 1.6 | 0.00 | 0.46 | 0.00 | 93 | 1013.1 |
| 20260507024217 | 8 | 63 | 0.0 | 1.6 | 0.00 | 0.46 | 0.00 | 93 | 1013.1 |
| 20260507023503 | 8 | 63 | 0.0 | 1.6 | 0.00 | 0.48 | 0.00 | 93 | 1013.0 |
| 20260507023003 | 8 | 63 | 0.0 | 1.6 | 0.00 | 0.48 | 0.00 | 94 | 1013.0 |
| 20260507022503 | 8 | 0 | 0.0 | 0.0 | 0.00 | 0.48 | 0.00 | 94 | 1012.9 |
| 20260507022003 | 8 | 0 | 0.0 | 0.0 | 0.00 | 0.51 | 0.00 | 93 | 1012.8 |
| 20260507021503 | 8 | 0 | 0.0 | 0.0 | 0.00 | 0.51 | 0.00 | 93 | 1012.8 |
| 20260507021003 | 8 | 0 | 0.0 | 0.0 | 0.00 | 0.51 | 0.00 | 93 | 1012.7 |
| 20260507020718 | 8 | 0 | 0.0 | 0.0 | 0.00 | 0.51 | 0.00 | 93 | 1012.8 |
| 20260507020217 | 8 | 0 | 0.0 | 0.0 | 0.00 | 0.51 | 0.00 | 93 | 1012.7 |
| 20260507015503 | 8 | 0 | 0.0 | 0.0 | 0.00 | 0.53 | 0.00 | 93 | 1012.6 |
| 20260507015003 | 8 | 0 | 0.0 | 0.0 | 0.00 | 0.53 | 0.00 | 93 | 1012.6 |
| 20260507014503 | 8 | 0 | 0.0 | 0.0 | 0.00 | 0.56 | 0.00 | 93 | 1012.7 |
| 20260507014004 | 8 | 0 | 0.0 | 0.0 | 0.00 | 0.56 | 0.00 | 93 | 1012.7 |
| 20260507013503 | 8 | 0 | 0.0 | 0.0 | 0.00 | 0.58 | 0.00 | 93 | 1012.7 |
| 20260507013003 | 8 | 0 | 0.0 | 0.0 | 0.00 | 0.58 | 0.00 | 93 | 1012.7 |
| 20260507012503 | 8 | 0 | 0.0 | 0.0 | 0.00 | 0.61 | 0.00 | 92 | 1012.8 |
| 20260507012003 | 8 | 0 | 0.0 | 0.0 | 0.00 | 0.61 | 0.00 | 92 | 1012.7 |
| 20260507011503 | 8 | 0 | 0.0 | 0.0 | 0.00 | 0.61 | 0.00 | 92 | 1012.7 |
| 20260507010717 | 8 | 63 | 0.0 | 1.6 | 0.00 | 0.64 | 0.00 | 92 | 1012.7 |
| 20260507010004 | 8 | 63 | 0.0 | 1.6 | 0.00 | 0.69 | 0.00 | 92 | 1012.6 |
| 20260507005503 | 8 | 0 | 0.0 | 0.0 | 0.00 | 0.71 | 0.00 | 91 | 1012.7 |
| 20260507005003 | 8 | 0 | 0.0 | 0.0 | 0.00 | 0.71 | 0.00 | 91 | 1012.7 |
| 20260507004503 | 8 | 0 | 0.0 | 0.0 | 0.00 | 0.71 | 0.00 | 91 | 1012.6 |
| 20260507004003 | 8 | 63 | 0.0 | 1.6 | 0.00 | 0.74 | 0.00 | 91 | 1012.7 |
| 20260507003503 | 8 | 63 | 0.0 | 1.6 | 0.00 | 0.76 | 0.00 | 91 | 1012.7 |
| 20260507003218 | 8 | 63 | 0.0 | 1.6 | 0.00 | 0.79 | 0.00 | 91 | 1012.6 |
| 20260507002503 | 8 | 0 | 0.0 | 0.0 | 0.00 | 0.81 | 0.00 | 90 | 1012.6 |
| 20260507002003 | 8 | 0 | 0.0 | 0.0 | 0.00 | 0.84 | 0.00 | 90 | 1012.6 |
| 20260507001503 | 8 | 0 | 0.0 | 0.0 | 0.00 | 0.86 | 0.00 | 90 | 1012.6 |
| 20260507001003 | 8 | 63 | 0.0 | 1.6 | 0.00 | 0.89 | 0.00 | 90 | 1012.6 |
| 20260507000503 | 8 | 63 | 0.0 | 3.2 | 0.00 | 0.89 | 0.00 | 89 | 1012.7 |
| 20260507000009 | 8 | 63 | 0.0 | 3.2 | 0.00 | 0.91 | 0.00 | 89 | 1012.6 |
| 20260506235503 | 8 | 63 | 0.0 | 3.2 | 0.00 | 0.94 | 0.00 | 90 | 1012.7 |
| 20260506235218 | 8 | 63 | 0.0 | 3.2 | 0.00 | 0.97 | 0.00 | 90 | 1012.6 |
| 20260506234504 | 8 | 63 | 1.6 | 3.2 | 0.00 | 0.99 | 0.00 | 90 | 1012.6 |
| 20260506234218 | 8 | 63 | 0.0 | 3.2 | 0.00 | 0.99 | 0.00 | 90 | 1012.5 |
| 20260506233503 | 8 | 40 | 1.6 | 4.8 | 0.00 | 1.02 | 0.00 | 90 | 1012.5 |
| 20260506233003 | 8 | 15 | 1.6 | 4.8 | 0.00 | 1.04 | 0.00 | 90 | 1012.4 |
| 20260506232503 | 8 | 343 | 1.6 | 4.8 | 0.00 | 1.04 | 0.00 | 90 | 1012.4 |
| 20260506232218 | 8 | 337 | 0.0 | 3.2 | 0.00 | 1.07 | 0.00 | 90 | 1012.4 |
| 20260506231504 | 8 | 317 | 0.0 | 1.6 | 0.00 | 1.09 | 0.00 | 90 | 1012.2 |
| 20260506231003 | 8 | 317 | 0.0 | 1.6 | 0.00 | 1.09 | 0.00 | 90 | 1012.2 |
| 20260506230717 | 8 | 317 | 0.0 | 1.6 | 0.00 | 1.12 | 0.00 | 90 | 1012.2 |
| 20260506230003 | 8 | 317 | 0.0 | 3.2 | 0.00 | 1.14 | 0.00 | 90 | 1012.2 |
| 20260506225503 | 8 | 317 | 0.0 | 1.6 | 0.00 | 1.17 | 0.00 | 90 | 1012.1 |
| 20260506225003 | 8 | 314 | 0.0 | 3.2 | 0.00 | 1.17 | 0.00 | 90 | 1012.0 |
| 20260506224503 | 8 | 314 | 0.0 | 3.2 | 0.00 | 1.17 | 0.00 | 90 | 1012.0 |
| 20260506224218 | 8 | 318 | 0.0 | 4.8 | 0.00 | 1.17 | 0.00 | 90 | 1011.9 |
| 20260506223503 | 8 | 48 | 1.6 | 4.8 | 0.00 | 1.19 | 0.00 | 90 | 1012.0 |
| 20260506223003 | 8 | 77 | 1.6 | 4.8 | 0.00 | 1.22 | 0.00 | 90 | 1011.9 |
| 20260506222503 | 8 | 76 | 1.6 | 4.8 | 0.00 | 1.24 | 0.00 | 90 | 1011.8 |
| 20260506222003 | 8 | 64 | 1.6 | 4.8 | 0.00 | 1.27 | 0.00 | 90 | 1011.8 |
| 20260506221504 | 8 | 49 | 1.6 | 4.8 | 0.00 | 1.27 | 0.00 | 90 | 1011.8 |
| 20260506221217 | 8 | 48 | 1.6 | 3.2 | 0.00 | 1.30 | 0.00 | 90 | 1011.8 |
| 20260506220508 | 8 | 69 | 0.0 | 3.2 | 0.00 | 1.32 | 0.00 | 90 | 1011.7 |
| 20260506220004 | 8 | 69 | 1.6 | 6.4 | 0.00 | 1.35 | 0.00 | 90 | 1011.8 |
| 20260506215503 | 8 | 71 | 0.0 | 6.4 | 0.00 | 1.40 | 1.35 | 90 | 1011.7 |
| 20260506215004 | 8 | 74 | 0.0 | 3.2 | 0.00 | 1.45 | 1.35 | 90 | 1011.7 |
| 20260506214503 | 8 | 69 | 1.6 | 3.2 | 0.00 | 1.47 | 1.35 | 90 | 1011.6 |
| 20260506214003 | 8 | 67 | 1.6 | 6.4 | 0.00 | 1.50 | 1.35 | 90 | 1011.6 |
| 20260506213503 | 8 | 78 | 1.6 | 6.4 | 0.00 | 1.52 | 1.35 | 90 | 1011.6 |
| 20260506213003 | 8 | 87 | 0.0 | 4.8 | 0.00 | 1.52 | 1.35 | 90 | 1011.6 |
| 20260506212503 | 8 | 78 | 1.6 | 4.8 | 0.00 | 1.55 | 1.35 | 90 | 1011.6 |
| 20260506212003 | 8 | 66 | 1.6 | 3.2 | 0.00 | 1.63 | 1.35 | 90 | 1011.6 |
| 20260506211503 | 8 | 61 | 1.6 | 4.8 | 0.00 | 1.65 | 1.35 | 90 | 1011.6 |
| 20260506211003 | 8 | 63 | 1.6 | 4.8 | 0.00 | 1.70 | 1.35 | 90 | 1011.5 |
| 20260506210503 | 8 | 68 | 0.0 | 3.2 | 0.00 | 1.73 | 1.35 | 90 | 1011.4 |
| 20260506210004 | 8 | 69 | 0.0 | 1.6 | 0.00 | 1.75 | 1.35 | 90 | 1011.3 |
| 20260506205503 | 8 | 63 | 1.6 | 4.8 | 0.00 | 1.78 | 1.35 | 89 | 1011.4 |
| 20260506205217 | 8 | 66 | 1.6 | 4.8 | 0.00 | 1.78 | 1.35 | 89 | 1011.4 |
| 20260506204503 | 9 | 77 | 1.6 | 4.8 | 0.00 | 1.83 | 1.35 | 88 | 1011.2 |
| 20260506204003 | 9 | 68 | 1.6 | 9.7 | 0.00 | 1.83 | 1.35 | 88 | 1011.2 |
| 20260506203503 | 9 | 59 | 3.2 | 9.7 | 0.00 | 1.85 | 1.35 | 87 | 1011.1 |
| 20260506203003 | 9 | 57 | 3.2 | 8.0 | 0.00 | 1.91 | 1.35 | 86 | 1011.1 |
| 20260506202503 | 9 | 62 | 3.2 | 12.9 | 0.00 | 1.93 | 1.35 | 86 | 1011.1 |
| 20260506202004 | 10 | 64 | 1.6 | 12.9 | 0.00 | 1.93 | 1.35 | 85 | 1011.1 |
| 20260506201503 | 10 | 62 | 1.6 | 6.4 | 0.00 | 1.98 | 1.35 | 84 | 1011.2 |
| 20260506201217 | 10 | 62 | 1.6 | 6.4 | 0.00 | 1.98 | 1.35 | 84 | 1011.1 |
| 20260506200503 | 10 | 81 | 1.6 | 4.8 | 0.00 | 2.03 | 1.35 | 84 | 1011.1 |
| 20260506200003 | 10 | 66 | 1.6 | 8.0 | 0.00 | 2.03 | 1.35 | 83 | 1011.1 |
| 20260506195503 | 10 | 55 | 1.6 | 8.0 | 0.00 | 2.06 | 1.35 | 83 | 1011.0 |
| 20260506195003 | 10 | 59 | 1.6 | 6.4 | 0.00 | 2.08 | 1.35 | 83 | 1010.9 |
| 20260506194718 | 10 | 59 | 1.6 | 6.4 | 0.00 | 2.08 | 1.35 | 83 | 1010.9 |
| 20260506194008 | 10 | 75 | 1.6 | 6.4 | 0.00 | 2.11 | 1.35 | 82 | 1010.9 |
| 20260506193504 | 10 | 77 | 1.6 | 4.8 | 0.00 | 2.13 | 1.35 | 82 | 1010.8 |
| 20260506193004 | 10 | 68 | 0.0 | 3.2 | 0.00 | 2.16 | 1.35 | 82 | 1010.8 |
| 20260506192503 | 10 | 64 | 1.6 | 4.8 | 0.00 | 2.16 | 1.35 | 82 | 1010.7 |
| 20260506192003 | 10 | 66 | 1.6 | 4.8 | 0.00 | 2.18 | 1.35 | 81 | 1010.5 |
| 20260506191503 | 10 | 65 | 1.6 | 4.8 | 0.00 | 2.21 | 1.35 | 81 | 1010.5 |
| 20260506191218 | 10 | 65 | 1.6 | 4.8 | 0.00 | 2.21 | 1.35 | 81 | 1010.5 |
| 20260506190503 | 10 | 73 | 1.6 | 4.8 | 0.00 | 2.24 | 1.35 | 80 | 1010.3 |
| 20260506190004 | 10 | 77 | 1.6 | 3.2 | 0.00 | 2.26 | 1.35 | 80 | 1010.3 |
| 20260506185503 | 10 | 80 | 1.6 | 3.2 | 0.00 | 2.29 | 1.35 | 79 | 1010.2 |
| 20260506185003 | 10 | 70 | 1.6 | 8.0 | 0.00 | 2.31 | 1.35 | 78 | 1010.2 |
| 20260506184509 | 10 | 76 | 3.2 | 8.0 | 0.00 | 2.31 | 1.35 | 78 | 1010.2 |
| 20260506184003 | 10 | 81 | 3.2 | 8.0 | 0.00 | 2.31 | 1.35 | 77 | 1010.2 |
| 20260506183504 | 11 | 74 | 3.2 | 8.0 | 0.00 | 2.34 | 1.35 | 77 | 1010.1 |
| 20260506183003 | 11 | 73 | 3.2 | 8.0 | 0.00 | 2.34 | 1.35 | 76 | 1010.0 |
| 20260506182503 | 11 | 74 | 1.6 | 6.4 | 0.00 | 2.34 | 1.35 | 75 | 1010.0 |
| 20260506182003 | 11 | 79 | 1.6 | 6.4 | 0.00 | 2.34 | 1.35 | 75 | 1009.9 |
| 20260506181503 | 11 | 73 | 1.6 | 6.4 | 0.00 | 2.36 | 1.35 | 74 | 1009.8 |
| 20260506181003 | 11 | 65 | 3.2 | 6.4 | 0.00 | 2.36 | 1.35 | 72 | 1009.8 |
| 20260506180503 | 11 | 66 | 3.2 | 9.7 | 0.00 | 2.36 | 1.35 | 72 | 1009.7 |
| 20260506180004 | 12 | 70 | 1.6 | 9.7 | 0.00 | 2.36 | 1.35 | 72 | 1009.6 |
| 20260506175503 | 12 | 69 | 3.2 | 11.3 | 0.00 | 2.39 | 1.35 | 72 | 1009.5 |
| 20260506175218 | 12 | 66 | 3.2 | 11.3 | 0.00 | 2.39 | 1.35 | 71 | 1009.3 |
| 20260506174717 | 12 | 69 | 3.2 | 11.3 | 0.00 | 2.39 | 1.35 | 72 | 1009.3 |
| 20260506174003 | 12 | 61 | 3.2 | 11.3 | 0.00 | 2.39 | 1.35 | 73 | 1009.2 |
| 20260506173504 | 12 | 61 | 3.2 | 11.3 | 0.00 | 2.39 | 1.35 | 72 | 1009.2 |
| 20260506173003 | 12 | 65 | 3.2 | 11.3 | 0.00 | 2.39 | 1.35 | 72 | 1009.1 |
| 20260506172503 | 12 | 68 | 3.2 | 11.3 | 0.00 | 2.39 | 1.35 | 72 | 1009.2 |
| 20260506172218 | 12 | 72 | 3.2 | 11.3 | 0.00 | 2.39 | 1.35 | 73 | 1009.2 |
| 20260506171503 | 12 | 71 | 1.6 | 6.4 | 0.00 | 2.39 | 1.35 | 74 | 1009.1 |
| 20260506171003 | 12 | 73 | 1.6 | 4.8 | 0.00 | 2.39 | 1.35 | 75 | 1009.1 |
| 20260506170503 | 12 | 79 | 1.6 | 6.4 | 0.00 | 2.39 | 1.35 | 75 | 1009.1 |
| 20260506170003 | 12 | 83 | 1.6 | 6.4 | 0.00 | 2.39 | 1.35 | 75 | 1009.0 |
| 20260506165503 | 12 | 73 | 1.6 | 4.8 | 0.00 | 2.39 | 1.35 | 75 | 1009.0 |
| 20260506165004 | 12 | 58 | 1.6 | 4.8 | 0.00 | 2.39 | 1.35 | 75 | 1008.9 |
| 20260506164503 | 12 | 70 | 1.6 | 4.8 | 0.00 | 2.39 | 1.35 | 74 | 1008.9 |
| 20260506164003 | 12 | 81 | 3.2 | 11.3 | 0.00 | 2.39 | 1.35 | 73 | 1008.8 |
| 20260506163503 | 12 | 78 | 3.2 | 11.3 | 0.00 | 2.39 | 1.35 | 73 | 1008.8 |
| 20260506163217 | 12 | 84 | 3.2 | 11.3 | 0.00 | 2.39 | 1.35 | 73 | 1008.8 |
| 20260506162503 | 13 | 99 | 1.6 | 6.4 | 0.00 | 2.39 | 1.35 | 73 | 1008.8 |
| 20260506162003 | 13 | 87 | 3.2 | 8.0 | 0.00 | 2.39 | 1.35 | 72 | 1008.8 |
| 20260506161503 | 13 | 80 | 3.2 | 8.0 | 0.00 | 2.39 | 1.35 | 71 | 1008.8 |
| 20260506161003 | 13 | 76 | 3.2 | 12.9 | 0.00 | 2.39 | 1.35 | 71 | 1008.7 |
| 20260506160503 | 13 | 78 | 3.2 | 12.9 | 0.00 | 2.39 | 1.35 | 71 | 1008.8 |
| 20260506160004 | 13 | 102 | 3.2 | 9.7 | 0.00 | 2.39 | 1.35 | 71 | 1008.7 |
| 20260506155504 | 13 | 99 | 3.2 | 9.7 | 0.00 | 2.39 | 1.35 | 73 | 1008.7 |
| 20260506155003 | 13 | 85 | 4.8 | 9.7 | 0.00 | 2.39 | 1.35 | 73 | 1008.6 |
| 20260506154503 | 13 | 86 | 3.2 | 9.7 | 0.00 | 2.39 | 1.35 | 73 | 1008.6 |
| 20260506154003 | 13 | 87 | 3.2 | 6.4 | 0.00 | 2.39 | 1.35 | 74 | 1008.7 |
| 20260506153503 | 13 | 81 | 3.2 | 9.7 | 0.00 | 2.39 | 1.35 | 75 | 1008.6 |
| 20260506153003 | 13 | 75 | 1.6 | 9.7 | 0.00 | 2.39 | 1.35 | 74 | 1008.6 |
| 20260506152718 | 13 | 76 | 1.6 | 9.7 | 0.00 | 2.39 | 1.35 | 74 | 1008.7 |
| 20260506152003 | 13 | 81 | 3.2 | 6.4 | 0.00 | 2.39 | 1.35 | 70 | 1008.6 |
| 20260506151503 | 13 | 67 | 3.2 | 11.3 | 0.00 | 2.39 | 1.35 | 69 | 1008.6 |
| 20260506151217 | 13 | 58 | 3.2 | 11.3 | 0.00 | 2.39 | 1.35 | 69 | 1008.6 |
| 20260506150503 | 13 | 63 | 3.2 | 8.0 | 0.00 | 2.39 | 1.35 | 70 | 1008.5 |
| 20260506150004 | 13 | 57 | 3.2 | 8.0 | 0.00 | 2.39 | 1.35 | 71 | 1008.5 |
| 20260506145503 | 13 | 59 | 3.2 | 8.0 | 0.00 | 2.39 | 1.35 | 70 | 1008.4 |
| 20260506145003 | 13 | 69 | 1.6 | 6.4 | 0.00 | 2.39 | 1.35 | 72 | 1008.4 |
| 20260506144503 | 13 | 57 | 1.6 | 4.8 | 0.00 | 2.39 | 1.35 | 71 | 1008.4 |
| 20260506144217 | 13 | 55 | 1.6 | 6.4 | 0.00 | 2.39 | 1.35 | 73 | 1008.4 |
| 20260506143503 | 13 | 66 | 1.6 | 6.4 | 0.00 | 2.39 | 1.35 | 74 | 1008.6 |
| 20260506143003 | 13 | 69 | 3.2 | 8.0 | 0.00 | 2.39 | 1.35 | 73 | 1008.6 |
| 20260506142503 | 13 | 72 | 4.8 | 11.3 | 0.00 | 2.39 | 1.35 | 71 | 1008.6 |
| 20260506142004 | 13 | 50 | 4.8 | 14.5 | 0.00 | 2.39 | 1.35 | 70 | 1008.6 |
| 20260506141503 | 14 | 352 | 3.2 | 14.5 | 0.00 | 2.39 | 1.35 | 71 | 1008.6 |
| 20260506141218 | 14 | 349 | 3.2 | 8.0 | 0.00 | 2.39 | 1.35 | 71 | 1008.6 |
| 20260506140503 | 14 | 16 | 3.2 | 8.0 | 0.00 | 2.39 | 1.35 | 73 | 1008.7 |
| 20260506140003 | 14 | 16 | 3.2 | 6.4 | 0.00 | 2.39 | 1.35 | 75 | 1008.7 |
| 20260506135717 | 14 | 350 | 3.2 | 6.4 | 0.00 | 2.39 | 1.35 | 75 | 1008.6 |
| 20260506135218 | 13 | 314 | 3.2 | 8.0 | 0.00 | 2.39 | 1.35 | 75 | 1008.6 |
| 20260506134503 | 13 | 311 | 3.2 | 12.9 | 0.00 | 2.39 | 1.35 | 77 | 1008.5 |
| 20260506134003 | 13 | 50 | 1.6 | 9.7 | 0.00 | 2.39 | 1.35 | 77 | 1008.6 |
| 20260506133503 | 13 | 44 | 3.2 | 9.7 | 0.00 | 2.39 | 1.35 | 76 | 1008.5 |
| 20260506133003 | 13 | 360 | 3.2 | 11.3 | 0.00 | 2.39 | 1.35 | 77 | 1008.6 |
| 20260506132503 | 13 | 12 | 3.2 | 11.3 | 0.00 | 2.39 | 1.35 | 76 | 1008.6 |
| 20260506132003 | 13 | 49 | 3.2 | 9.7 | 0.00 | 2.39 | 1.35 | 77 | 1008.5 |
| 20260506131503 | 13 | 54 | 3.2 | 9.7 | 0.00 | 2.39 | 1.35 | 77 | 1008.5 |
| 20260506131003 | 12 | 344 | 3.2 | 6.4 | 0.00 | 2.39 | 1.35 | 80 | 1008.6 |
| 20260506130503 | 12 | 350 | 3.2 | 11.3 | 0.00 | 2.39 | 1.35 | 80 | 1008.6 |
| 20260506130003 | 12 | 36 | 1.6 | 11.3 | 0.00 | 2.39 | 1.35 | 81 | 1008.6 |
| 20260506125503 | 12 | 58 | 3.2 | 12.9 | 0.00 | 2.39 | 1.35 | 83 | 1008.5 |
| 20260506125003 | 12 | 74 | 3.2 | 12.9 | 0.00 | 2.39 | 1.35 | 83 | 1008.5 |
| 20260506124503 | 12 | 75 | 1.6 | 6.4 | 0.00 | 2.39 | 1.35 | 86 | 1008.5 |
| 20260506124003 | 12 | 67 | 3.2 | 6.4 | 0.00 | 2.39 | 1.35 | 85 | 1008.4 |
| 20260506123508 | 12 | 63 | 1.6 | 6.4 | 0.00 | 2.39 | 1.35 | 85 | 1008.4 |
| 20260506123004 | 12 | 36 | 1.6 | 6.4 | 0.00 | 2.39 | 1.35 | 84 | 1008.4 |
| 20260506122503 | 12 | 360 | 1.6 | 4.8 | 0.00 | 2.39 | 1.35 | 84 | 1008.3 |
| 20260506122218 | 12 | 7 | 0.0 | 4.8 | 0.00 | 2.39 | 1.35 | 85 | 1008.3 |
| 20260506121717 | 12 | 58 | 1.6 | 11.3 | 0.00 | 2.39 | 1.35 | 84 | 1008.3 |
| 20260506121003 | 12 | 62 | 1.6 | 11.3 | 0.00 | 2.39 | 1.35 | 84 | 1008.3 |
| 20260506120503 | 12 | 71 | 3.2 | 6.4 | 0.00 | 2.39 | 1.35 | 85 | 1008.2 |
| 20260506120003 | 12 | 65 | 1.6 | 6.4 | 0.00 | 2.39 | 1.35 | 86 | 1008.2 |
| 20260506115503 | 12 | 355 | 0.0 | 4.8 | 0.00 | 2.39 | 1.35 | 88 | 1008.3 |
| 20260506115003 | 11 | 84 | 0.0 | 4.8 | 0.00 | 2.39 | 1.35 | 87 | 1008.2 |
| 20260506114503 | 11 | 343 | 1.6 | 4.8 | 0.00 | 2.39 | 1.35 | 86 | 1008.2 |
| 20260506114218 | 11 | 357 | 1.6 | 4.8 | 0.00 | 2.39 | 1.35 | 85 | 1008.2 |
| 20260506113503 | 12 | 36 | 1.6 | 4.8 | 0.00 | 2.39 | 1.35 | 86 | 1008.2 |
| 20260506113003 | 12 | 37 | 1.6 | 4.8 | 0.00 | 2.39 | 1.35 | 85 | 1008.1 |
| 20260506112503 | 12 | 70 | 3.2 | 6.4 | 0.00 | 2.39 | 1.35 | 85 | 1008.2 |
| 20260506112003 | 12 | 82 | 3.2 | 8.0 | 0.00 | 2.39 | 1.35 | 84 | 1008.2 |
| 20260506111503 | 12 | 83 | 3.2 | 8.0 | 0.00 | 2.39 | 1.35 | 85 | 1008.3 |
| 20260506111003 | 12 | 75 | 3.2 | 11.3 | 0.00 | 2.39 | 1.35 | 88 | 1008.3 |
| 20260506110503 | 11 | 50 | 3.2 | 11.3 | 0.00 | 2.39 | 1.35 | 89 | 1008.3 |
| 20260506110003 | 11 | 349 | 3.2 | 11.3 | 0.00 | 2.39 | 1.35 | 90 | 1008.4 |
| 20260506105718 | 11 | 320 | 3.2 | 8.0 | 0.00 | 2.39 | 1.35 | 91 | 1008.4 |
| 20260506105003 | 11 | 2 | 3.2 | 8.0 | 0.00 | 2.39 | 1.35 | 92 | 1008.5 |
| 20260506104503 | 11 | 59 | 3.2 | 11.3 | 0.00 | 2.39 | 1.35 | 92 | 1008.4 |
| 20260506104003 | 11 | 62 | 3.2 | 11.3 | 0.00 | 2.39 | 1.35 | 92 | 1008.4 |
| 20260506103503 | 11 | 63 | 1.6 | 8.0 | 0.00 | 2.39 | 1.35 | 94 | 1008.4 |
| 20260506103003 | 11 | 25 | 3.2 | 8.0 | 0.00 | 2.39 | 1.35 | 94 | 1008.4 |
| 20260506102503 | 10 | 347 | 3.2 | 6.4 | 0.00 | 2.39 | 1.35 | 94 | 1008.4 |
| 20260506102003 | 10 | 62 | 3.2 | 6.4 | 0.00 | 2.39 | 1.35 | 94 | 1008.4 |
| 20260506101718 | 10 | 67 | 3.2 | 8.0 | 0.00 | 2.39 | 1.35 | 94 | 1008.4 |
| 20260506101003 | 10 | 348 | 3.2 | 8.0 | 0.00 | 2.39 | 1.35 | 95 | 1008.3 |
| 20260506100503 | 10 | 7 | 3.2 | 9.7 | 0.00 | 2.39 | 1.35 | 95 | 1008.2 |
| 20260506100003 | 10 | 59 | 3.2 | 9.7 | 0.00 | 2.39 | 1.35 | 95 | 1008.2 |
| 20260506095503 | 10 | 59 | 3.2 | 6.4 | 0.00 | 2.39 | 1.35 | 96 | 1008.2 |
| 20260506095003 | 10 | 64 | 3.2 | 14.5 | 0.00 | 2.39 | 1.35 | 96 | 1008.2 |
| 20260506094503 | 10 | 60 | 3.2 | 14.5 | 0.00 | 2.39 | 1.35 | 96 | 1008.3 |
| 20260506094003 | 10 | 44 | 3.2 | 8.0 | 0.03 | 2.39 | 1.35 | 96 | 1008.1 |
| 20260506093503 | 9 | 60 | 3.2 | 11.3 | 0.03 | 2.39 | 1.35 | 97 | 1008.1 |
| 20260506093003 | 9 | 74 | 3.2 | 11.3 | 0.03 | 2.39 | 1.35 | 97 | 1008.1 |
| 20260506092503 | 9 | 73 | 3.2 | 9.7 | 0.03 | 2.39 | 1.35 | 97 | 1008.0 |
| 20260506092004 | 9 | 66 | 3.2 | 6.4 | 0.03 | 2.39 | 1.35 | 97 | 1008.0 |
| 20260506091503 | 8 | 63 | 3.2 | 6.4 | 0.03 | 2.39 | 1.35 | 97 | 1008.0 |
| 20260506091219 | 8 | 47 | 1.6 | 6.4 | 0.03 | 2.39 | 1.35 | 97 | 1008.0 |
| 20260506090503 | 8 | 58 | 3.2 | 16.1 | 0.03 | 2.39 | 1.35 | 97 | 1007.9 |
| 20260506090003 | 8 | 48 | 3.2 | 16.1 | 0.05 | 2.39 | 1.35 | 97 | 1007.9 |
| 20260506085503 | 8 | 44 | 3.2 | 8.0 | 0.05 | 2.39 | 1.35 | 97 | 1007.9 |
| 20260506085003 | 8 | 70 | 3.2 | 12.9 | 0.05 | 2.39 | 1.35 | 97 | 1007.8 |
| 20260506084503 | 8 | 73 | 3.2 | 12.9 | 0.05 | 2.41 | 1.35 | 97 | 1007.7 |
| 20260506084003 | 8 | 68 | 3.2 | 9.7 | 0.05 | 2.39 | 1.32 | 97 | 1007.8 |
| 20260506083503 | 8 | 56 | 3.2 | 9.7 | 0.05 | 2.39 | 1.32 | 97 | 1007.7 |
| 20260506083003 | 8 | 57 | 3.2 | 12.9 | 0.05 | 2.39 | 1.32 | 97 | 1007.7 |
| 20260506082504 | 8 | 76 | 3.2 | 12.9 | 0.08 | 2.39 | 1.32 | 97 | 1007.6 |
| 20260506082003 | 8 | 78 | 4.8 | 8.0 | 0.08 | 2.39 | 1.32 | 97 | 1007.6 |
| 20260506081503 | 8 | 71 | 4.8 | 12.9 | 0.08 | 2.39 | 1.32 | 97 | 1007.6 |
| 20260506081218 | 8 | 67 | 4.8 | 12.9 | 0.08 | 2.39 | 1.32 | 97 | 1007.5 |
| 20260506080503 | 8 | 70 | 4.8 | 11.3 | 0.10 | 2.39 | 1.32 | 97 | 1007.6 |